This is the latest recevied weather packets stored in our database for station/object N8BAP. If no packets are shown the sender has not sent any weather packets the latest 10 day(s).
| Time | Temp. | Humidity | Pressure | Rain* | Wind** | Luminosity | Snow |
|---|---|---|---|---|---|---|---|
| 1777428721 | 16.67° C | 89% | 1019 hPa | 0 mm | - | 0 W/m² | - |
| 1777428416 | 16.11° C | 89% | 1018.6 hPa | 0 mm | - | 0 W/m² | - |
| 1777428112 | 16.67° C | 89% | 1018.9 hPa | 0 mm | - | 0 W/m² | - |
| 1777427808 | 16.67° C | 89% | 1018.9 hPa | 0 mm | - | 0 W/m² | - |
| 1777427505 | 16.67° C | 89% | 1018.6 hPa | 0 mm | - | 0 W/m² | - |
| 1777427200 | 16.67° C | 87% | 1019 hPa | 0 mm | - | 0 W/m² | - |
| 1777426898 | 16.67° C | 87% | 1018.4 hPa | 0 mm | - | 0 W/m² | - |
| 1777426595 | 16.67° C | 86% | 1018.8 hPa | 0 mm | - | 0 W/m² | - |
| 1777426291 | 17.22° C | 85% | 1019 hPa | 0 mm | - | 0 W/m² | - |
| 1777425987 | 17.22° C | 84% | 1018.4 hPa | 0 mm | - | 0 W/m² | - |
| 1777425682 | 17.22° C | 83% | 1018.4 hPa | 0 mm | - | 0 W/m² | - |
| 1777425377 | 17.78° C | 82% | 1018.4 hPa | 0 mm | - | 0 W/m² | - |
| 1777425074 | 18.33° C | 82% | 1018.6 hPa | 0 mm | - | 0 W/m² | - |
| 1777424770 | 18.33° C | 81% | 1018.9 hPa | 0 mm | - | 0 W/m² | - |
| 1777424466 | 17.78° C | 81% | 1018.6 hPa | 0 mm | - | 0 W/m² | - |
| 1777424161 | 18.33° C | 82% | 1018.8 hPa | 0 mm | - | 0 W/m² | - |
| 1777423859 | 18.33° C | 81% | 1018.6 hPa | 0 mm | - | 0 W/m² | - |
| 1777423554 | 18.33° C | 79% | 1018.6 hPa | 0 mm | - | 0 W/m² | - |
| 1777423249 | 18.33° C | 80% | 1018.4 hPa | 0 mm | - | 0 W/m² | - |
| 1777422944 | 18.33° C | 80% | 1018.4 hPa | 0 mm | - | 0 W/m² | - |
| 1777422640 | 18.33° C | 78% | 1018.3 hPa | 0 mm | - | 0 W/m² | - |
| 1777422336 | 18.89° C | 78% | 1018.2 hPa | 0 mm | - | 0 W/m² | - |
| 1777422036 | 18.89° C | 76% | 1018.1 hPa | 0 mm | - | 1 W/m² | - |
| 1777421731 | 19.44° C | 75% | 1018.1 hPa | 0 mm | - | 2 W/m² | - |
| 1777421427 | 20° C | 74% | 1018.1 hPa | 0 mm | - | 4 W/m² | - |
* Rain latest hour (hover to see other rain measurements)
** Current wind speed in m/s (hover to see current wind gust speed)